Regional Weather Roundup
Issued by NWS Bismarck, ND

Home | Current Version | Previous Version | Text Only | Print | Product List | Glossary On
Versions: 1 2 3 4 5 6 7 8 9 10 11 12 13 14 15 16 17 18 19 20 21 22 23 24 25 26 27 28 29 30 31 32 33 34 35 36 37 38 39 40 41 42 43 44 45 46 47 48 49 50
000
ASUS43 KBIS 100410
RWRBIS

NWR BROADCAST TEXT
NATIONAL WEATHER SERVICE BISMARCK ND
1000 PM CST SAT DEC 09 2017

NOTE: "FAIR" INDICATES FEW OR NO CLOUDS BELOW 12,000 FEET WITH NO
SIGNIFICANT WEATHER AND/OR OBSTRUCTIONS TO VISIBILITY.


CITY           SKY/WX    TMP DP  RH WIND       PRES   REMARKS
WILLISTON      FAIR      40  22  48 CALM      30.06R
MINOT          FAIR      40  25  55 W22G30    29.91R
MINOT AFB      CLOUDY    37  25  61 NW18G28   29.90R
BISMARCK       FAIR      42  27  55 NW15      29.97S
DICKINSON      FAIR      39  21  48 W18       30.02S
GARRISON         N/A     38  24  57 W20       29.94F
HETTINGER ARPT CLEAR     43  15  32 NW25G36   30.06F
JAMESTOWN      FAIR      35  26  69 NW20      29.84R
CARRINGTON     FAIR      34  27  75 NW22      29.87S
LINTON           N/A     37  25  60 W14       29.97S
OAKES            N/A     34  27  75 NW16G22   29.86R
TIOGA          FAIR      32  23  69 W13       30.02R
$$

CITY           SKY/WX    TMP DP  RH WIND       PRES   REMARKS
GRAND FORKS    CLOUDY    30  23  75 NW14      29.80R WCI  19
GRAND FORKS AF CLOUDY    31  22  68 NW14      29.80R
DEVILS LAKE    CLEAR     28  23  81 W13       29.85R WCI  17
FARGO          CLOUDY    31  24  75 NW14      29.81R
CANDO          FAIR      25  21  86 W8        29.87R WCI  16
CAVALIER       FAIR      28  19  69 NW15G25   29.81R WCI  17
GWINNER          N/A     36  27  69 NW20      29.83S
ROLLA          FAIR      32  21  64 NW22G32   29.85R WCI  19
WALHALLA       FAIR      28  21  74 NW18G29   29.83R WCI  16
$$

CITY           SKY/WX    TMP DP  RH WIND       PRES   REMARKS
ABERDEEN       CLOUDY    35  26  69 W15       29.89F
MOBRIDGE       CLEAR     42  27  55 N18       29.94F
BUFFALO          N/A     40  18  41 W22       30.08R
RAPID CITY     CLEAR     49   8  19 NW15      30.17R
GLASGOW        CLOUDY    33  12  41 W6        30.17S
SIDNEY         CLEAR     41  19  41 NW12      30.09R
WOLF POINT     CLEAR     38  14  37 W15       30.15R
MILES CITY     CLEAR     39  13  34 W14       30.24R
BAKER          CLEAR     36  19  50 W15       30.16R
$$

CITY           SKY/WX    TMP DP  RH WIND       PRES   REMARKS
BILLINGS       CLEAR     38  17  42 SW21      30.33R
GREAT FALLS    CLOUDY    40   9  28 SW15      30.35R
REGINA         MOCLDY    32  25  74 W14       29.99R
ESTEVAN        PTCLDY    34  25  69 W14       29.96S
$$





USA.gov is the U.S. government's official web portal to all federal, state and local government web resources and services.